Time,TemperatureF,DewpointF,PressureIn,WindDirection,WindDirectionDegrees,WindSpeedMPH,WindSpeedGustMPH,Humidity,HourlyPrecipIn,Conditions,Clouds,dailyrainin,SoftwareType,DateUTC
2013-03-13 00:03:00,40.0,-99.9,-100.00,SW,230,1.0,-999.0,-999,-99.99,,,0.00,,2013-03-13 04:03:00,
2013-03-13 00:13:00,39.0,-99.9,-100.00,WSW,240,1.0,-999.0,-999,-99.99,,,0.00,,2013-03-13 04:13:00,
2013-03-13 00:23:00,38.0,-99.9,-100.00,WSW,241,1.0,-999.0,-999,-99.99,,,-99.99,,2013-03-13 04:23:00,
2013-03-13 00:33:00,38.0,-99.9,-100.00,West,268,1.0,-999.0,-999,-99.99,,,-99.99,,2013-03-13 04:33:00,
2013-03-13 00:43:00,38.0,-99.9,-100.00,West,268,1.0,-999.0,-999,-99.99,,,-99.99,,2013-03-13 04:43:00,
2013-03-13 00:53:00,38.0,-99.9,-100.00,West,263,1.0,-999.0,-999,-99.99,,,-99.99,,2013-03-13 04:53:00,
2013-03-13 01:03:00,38.0,-99.9,-100.00,West,263,1.0,-999.0,-999,-99.99,,,-99.99,,2013-03-13 05:03:00,
2013-03-13 01:13:00,38.0,-99.9,-100.00,SW,234,0.0,-999.0,-999,-99.99,,,-99.99,,2013-03-13 05:13:00,
2013-03-13 01:22:00,37.0,-99.9,-100.00,West,268,1.0,-999.0,-999,-99.99,,,-99.99,,2013-03-13 05:22:00,
2013-03-13 01:33:00,37.0,-99.9,-100.00,West,268,1.0,-999.0,-999,-99.99,,,-99.99,,2013-03-13 05:33:00,
2013-03-13 01:43:00,37.0,-99.9,-100.00,West,268,1.0,-999.0,-999,-99.99,,,-99.99,,2013-03-13 05:43:00,
2013-03-13 01:53:00,37.0,-99.9,-100.00,WSW,257,1.0,-999.0,-999,-99.99,,,0.00,,2013-03-13 05:53:00,
2013-03-13 02:03:00,37.0,-99.9,-100.00,WSW,257,1.0,-999.0,-999,-99.99,,,0.00,,2013-03-13 06:03:00,
2013-03-13 02:13:00,36.0,-99.9,-100.00,WSW,242,1.0,-999.0,-999,-99.99,,,0.00,,2013-03-13 06:13:00,
2013-03-13 02:23:00,35.0,-99.9,-100.00,South,180,1.0,-999.0,-999,-99.99,,,0.00,,2013-03-13 06:23:00,
2013-03-13 02:33:00,35.0,-99.9,-100.00,South,180,1.0,-999.0,-999,-99.99,,,0.00,,2013-03-13 06:33:00,
2013-03-13 02:43:00,35.0,-99.9,-100.00,South,183,1.0,-999.0,-999,-99.99,,,0.00,,2013-03-13 06:43:00,
2013-03-13 02:53:00,35.0,-99.9,-100.00,West,263,1.0,-999.0,-999,-99.99,,,0.00,,2013-03-13 06:53:00,
2013-03-13 03:03:00,35.0,-99.9,-100.00,West,263,1.0,-999.0,-999,-99.99,,,0.00,,2013-03-13 07:03:00,
2013-03-13 03:12:00,35.0,-99.9,-100.00,West,280,1.0,-999.0,-999,-99.99,,,-99.99,,2013-03-13 07:12:00,
2013-03-13 03:23:00,34.0,-99.9,-100.00,WNW,287,1.0,-999.0,-999,-99.99,,,0.00,,2013-03-13 07:23:00,
2013-03-13 03:33:00,34.0,-99.9,-100.00,WNW,287,1.0,-999.0,-999,-99.99,,,0.00,,2013-03-13 07:33:00,
2013-03-13 03:43:00,34.0,-99.9,-100.00,West,269,1.0,-999.0,-999,-99.99,,,0.00,,2013-03-13 07:43:00,
2013-03-13 03:53:00,34.0,-99.9,-100.00,WSW,242,1.0,-999.0,-999,-99.99,,,0.00,,2013-03-13 07:53:00,
2013-03-13 04:04:00,34.0,-99.9,-100.00,WSW,242,1.0,-999.0,-999,-99.99,,,0.00,,2013-03-13 08:04:00,
2013-03-13 04:12:00,34.0,-99.9,-100.00,WSW,258,1.0,-999.0,-999,-99.99,,,-99.99,,2013-03-13 08:12:00,
2013-03-13 04:23:00,33.0,-99.9,-100.00,WSW,257,1.0,-999.0,-999,-99.99,,,0.00,,2013-03-13 08:23:00,
2013-03-13 04:33:00,33.0,-99.9,-100.00,WSW,257,1.0,-999.0,-999,-99.99,,,0.00,,2013-03-13 08:33:00,
2013-03-13 04:43:00,33.0,-99.9,-100.00,WNW,301,1.0,-999.0,-999,-99.99,,,0.00,,2013-03-13 08:43:00,
2013-03-13 04:54:00,33.0,-99.9,-100.00,WSW,257,1.0,-999.0,-999,-99.99,,,0.00,,2013-03-13 08:54:00,
2013-03-13 05:02:00,33.0,-99.9,-100.00,WSW,257,1.0,-999.0,-999,-99.99,,,0.00,,2013-03-13 09:02:00,
2013-03-13 05:13:00,32.0,-99.9,-100.00,West,276,1.0,-999.0,-999,-99.99,,,-99.99,,2013-03-13 09:13:00,
2013-03-13 05:23:00,33.0,-99.9,-100.00,WNW,285,1.0,-999.0,-999,-99.99,,,0.00,,2013-03-13 09:23:00,
2013-03-13 05:32:00,33.0,-99.9,-100.00,WNW,285,1.0,-999.0,-999,-99.99,,,0.00,,2013-03-13 09:32:00,
2013-03-13 05:42:00,32.0,-99.9,-100.00,WNW,283,1.0,-999.0,-999,-99.99,,,0.00,,2013-03-13 09:42:00,
2013-03-13 05:53:00,32.0,-99.9,-100.00,SSW,211,1.0,-999.0,-999,-99.99,,,0.00,,2013-03-13 09:53:00,
2013-03-13 06:02:00,32.0,-99.9,-100.00,SSW,211,1.0,-999.0,-999,-99.99,,,0.00,,2013-03-13 10:02:00,
2013-03-13 06:12:00,31.0,-99.9,-100.00,WSW,243,1.0,-999.0,-999,-99.99,,,-99.99,,2013-03-13 10:12:00,
2013-03-13 06:22:00,31.0,-99.9,-100.00,WSW,252,1.0,-999.0,-999,-99.99,,,0.00,,2013-03-13 10:22:00,
2013-03-13 06:32:00,31.0,-99.9,-100.00,WSW,252,1.0,-999.0,-999,-99.99,,,0.00,,2013-03-13 10:32:00,
2013-03-13 06:42:00,31.0,-99.9,-100.00,WSW,258,2.0,-999.0,-999,-99.99,,,0.00,,2013-03-13 10:42:00,
2013-03-13 06:52:00,30.0,-99.9,-100.00,WNW,289,1.0,-999.0,-999,-99.99,,,0.00,,2013-03-13 10:52:00,
2013-03-13 07:02:00,30.0,-99.9,-100.00,WNW,289,1.0,-999.0,-999,-99.99,,,0.00,,2013-03-13 11:02:00,
2013-03-13 07:13:00,31.0,-99.9,-100.00,WNW,297,1.0,-999.0,-999,-99.99,,,0.00,,2013-03-13 11:13:00,
2013-03-13 07:23:00,31.0,-99.9,-100.00,NW,318,1.0,-999.0,-999,-99.99,,,0.00,,2013-03-13 11:23:00,
2013-03-13 07:32:00,33.0,-99.9,-100.00,WNW,289,3.0,-999.0,-999,-99.99,,,0.00,,2013-03-13 11:32:00,
2013-03-13 07:42:00,33.0,-99.9,-100.00,WNW,289,3.0,-999.0,-999,-99.99,,,0.00,,2013-03-13 11:42:00,
2013-03-13 07:53:00,36.0,-99.9,-100.00,WNW,284,4.0,-999.0,-999,-99.99,,,0.00,,2013-03-13 11:53:00,
2013-03-13 08:02:00,36.0,-99.9,-100.00,WNW,284,4.0,-999.0,-999,-99.99,,,0.00,,2013-03-13 12:02:00,
2013-03-13 08:12:00,37.0,-99.9,-100.00,WNW,286,5.0,-999.0,-999,-99.99,,,-99.99,,2013-03-13 12:12:00,
2013-03-13 08:22:00,36.0,-99.9,-100.00,WNW,283,4.0,-999.0,-999,-99.99,,,0.00,,2013-03-13 12:22:00,
2013-03-13 08:33:00,36.0,-99.9,-100.00,WNW,283,4.0,-999.0,-999,-99.99,,,0.00,,2013-03-13 12:33:00,
2013-03-13 08:42:00,36.0,-99.9,-100.00,West,276,3.0,-999.0,-999,-99.99,,,0.00,,2013-03-13 12:42:00,
2013-03-13 08:53:00,36.0,-99.9,-100.00,West,264,2.0,-999.0,-999,-99.99,,,0.00,,2013-03-13 12:53:00,
2013-03-13 09:02:00,36.0,-99.9,-100.00,West,264,2.0,-999.0,-999,-99.99,,,0.00,,2013-03-13 13:02:00,
2013-03-13 09:12:00,36.0,-99.9,-100.00,West,273,3.0,-999.0,-999,-99.99,,,-99.99,,2013-03-13 13:12:00,
2013-03-13 09:22:00,37.0,-99.9,-100.00,WNW,293,4.0,-999.0,-999,-99.99,,,0.00,,2013-03-13 13:22:00,
2013-03-13 09:33:00,37.0,-99.9,-100.00,WNW,293,4.0,-999.0,-999,-99.99,,,0.00,,2013-03-13 13:33:00,
2013-03-13 09:44:00,37.0,-99.9,-100.00,West,273,4.0,-999.0,-999,-99.99,,,0.00,,2013-03-13 13:44:00,
2013-03-13 09:53:00,37.0,-99.9,-100.00,WNW,292,4.0,-999.0,-999,-99.99,,,0.00,,2013-03-13 13:53:00,
2013-03-13 10:03:00,37.0,-99.9,-100.00,WNW,292,4.0,-999.0,-999,-99.99,,,0.00,,2013-03-13 14:03:00,
2013-03-13 10:12:00,38.0,-99.9,-100.00,WNW,290,5.0,-999.0,-999,-99.99,,,-99.99,,2013-03-13 14:12:00,
2013-03-13 10:22:00,38.0,-99.9,-100.00,WNW,287,7.0,-999.0,-999,-99.99,,,0.00,,2013-03-13 14:22:00,
2013-03-13 10:34:00,38.0,-99.9,-100.00,WNW,287,7.0,-999.0,-999,-99.99,,,0.00,,2013-03-13 14:34:00,
2013-03-13 10:43:00,39.0,-99.9,-100.00,WNW,296,6.0,-999.0,-999,-99.99,,,0.00,,2013-03-13 14:43:00,
2013-03-13 10:53:00,39.0,-99.9,-100.00,NW,306,6.0,-999.0,-999,-99.99,,,0.00,,2013-03-13 14:53:00,
2013-03-13 11:03:00,39.0,-99.9,-100.00,NW,306,6.0,-999.0,-999,-99.99,,,0.00,,2013-03-13 15:03:00,
2013-03-13 11:12:00,39.0,-99.9,-100.00,NW,320,9.0,-999.0,-999,-99.99,,,-99.99,,2013-03-13 15:12:00,
2013-03-13 11:22:00,40.0,-99.9,-100.00,WNW,292,7.0,-999.0,-999,-99.99,,,0.00,,2013-03-13 15:22:00,
2013-03-13 11:33:00,40.0,-99.9,-100.00,WNW,292,7.0,-999.0,-999,-99.99,,,0.00,,2013-03-13 15:33:00,
2013-03-13 11:43:00,40.0,-99.9,-100.00,NW,304,7.0,-999.0,-999,-99.99,,,-99.99,,2013-03-13 15:43:00,
2013-03-13 11:53:00,40.0,-99.9,-100.00,NW,304,9.0,-999.0,-999,-99.99,,,-99.99,,2013-03-13 15:53:00,
2013-03-13 12:03:00,40.0,-99.9,-100.00,NW,304,9.0,-999.0,-999,-99.99,,,-99.99,,2013-03-13 16:03:00,
2013-03-13 12:13:00,40.0,-99.9,-100.00,WNW,296,10.0,-999.0,-999,-99.99,,,-99.99,,2013-03-13 16:13:00,
2013-03-13 12:22:00,41.0,-99.9,-100.00,WNW,299,10.0,-999.0,-999,-99.99,,,-99.99,,2013-03-13 16:22:00,
2013-03-13 12:33:00,41.0,-99.9,-100.00,WNW,299,10.0,-999.0,-999,-99.99,,,-99.99,,2013-03-13 16:33:00,
2013-03-13 12:42:00,41.0,-99.9,-100.00,WNW,290,11.0,-999.0,-999,-99.99,,,0.00,,2013-03-13 16:42:00,
2013-03-13 12:52:00,41.0,-99.9,-100.00,WNW,302,12.0,-999.0,-999,-99.99,,,0.00,,2013-03-13 16:52:00,
2013-03-13 13:03:00,41.0,-99.9,-100.00,WNW,302,12.0,-999.0,-999,-99.99,,,0.00,,2013-03-13 17:03:00,
2013-03-13 13:12:00,41.0,-99.9,-100.00,WNW,292,12.0,-999.0,-999,-99.99,,,0.00,,2013-03-13 17:12:00,
2013-03-13 13:23:00,42.0,-99.9,-100.00,WNW,284,11.0,-999.0,-999,-99.99,,,0.00,,2013-03-13 17:23:00,
2013-03-13 13:33:00,42.0,-99.9,-100.00,WNW,284,11.0,-999.0,-999,-99.99,,,0.00,,2013-03-13 17:33:00,
2013-03-13 13:43:00,42.0,-99.9,-100.00,WNW,300,12.0,-999.0,-999,-99.99,,,0.00,,2013-03-13 17:43:00,
2013-03-13 13:54:00,41.0,-99.9,-100.00,WNW,291,10.0,-999.0,-999,-99.99,,,0.00,,2013-03-13 17:54:00,
2013-03-13 14:03:00,41.0,-99.9,-100.00,WNW,291,10.0,-999.0,-999,-99.99,,,0.00,,2013-03-13 18:03:00,
2013-03-13 14:13:00,43.0,-99.9,-100.00,WNW,290,9.0,-999.0,-999,-99.99,,,0.00,,2013-03-13 18:13:00,
2013-03-13 14:22:00,43.0,-99.9,-100.00,WNW,290,9.0,-999.0,-999,-99.99,,,0.00,,2013-03-13 18:22:00,
2013-03-13 14:34:00,43.0,-99.9,-100.00,WNW,290,9.0,-999.0,-999,-99.99,,,0.00,,2013-03-13 18:34:00,
2013-03-13 14:43:00,43.0,-99.9,-100.00,WNW,303,10.0,-999.0,-999,-99.99,,,0.00,,2013-03-13 18:43:00,
2013-03-13 14:52:00,43.0,-99.9,-100.00,WNW,303,10.0,-999.0,-999,-99.99,,,0.00,,2013-03-13 18:52:00,
2013-03-13 15:03:00,43.0,-99.9,-100.00,WNW,303,10.0,-999.0,-999,-99.99,,,0.00,,2013-03-13 19:03:00,
2013-03-13 15:13:00,43.0,-99.9,-100.00,WNW,297,12.0,-999.0,-999,-99.99,,,0.00,,2013-03-13 19:13:00,
2013-03-13 15:23:00,43.0,-99.9,-100.00,NW,307,11.0,-999.0,-999,-99.99,,,0.00,,2013-03-13 19:23:00,
2013-03-13 15:32:00,43.0,-99.9,-100.00,NW,307,11.0,-999.0,-999,-99.99,,,0.00,,2013-03-13 19:32:00,
2013-03-13 15:43:00,43.0,-99.9,-100.00,NW,307,12.0,-999.0,-999,-99.99,,,0.00,,2013-03-13 19:43:00,
2013-03-13 15:53:00,43.0,-99.9,-100.00,NW,307,12.0,-999.0,-999,-99.99,,,0.00,,2013-03-13 19:53:00,
2013-03-13 16:02:00,43.0,-99.9,-100.00,NW,307,12.0,-999.0,-999,-99.99,,,0.00,,2013-03-13 20:02:00,
2013-03-13 16:13:00,43.0,-99.9,-100.00,NW,307,13.0,-999.0,-999,-99.99,,,0.00,,2013-03-13 20:13:00,
2013-03-13 16:23:00,43.0,-99.9,-100.00,NW,307,13.0,-999.0,-999,-99.99,,,0.00,,2013-03-13 20:23:00,
2013-03-13 16:33:00,43.0,-99.9,-100.00,NW,307,13.0,-999.0,-999,-99.99,,,0.00,,2013-03-13 20:33:00,
2013-03-13 16:42:00,44.0,-99.9,-100.00,WNW,296,12.0,-999.0,-999,-99.99,,,0.00,,2013-03-13 20:42:00,
2013-03-13 16:53:00,44.0,-99.9,-100.00,WNW,296,12.0,-999.0,-999,-99.99,,,0.00,,2013-03-13 20:53:00,
2013-03-13 17:02:00,44.0,-99.9,-100.00,WNW,296,12.0,-999.0,-999,-99.99,,,0.00,,2013-03-13 21:02:00,
2013-03-13 17:12:00,44.0,-99.9,-100.00,WNW,303,9.0,-999.0,-999,-99.99,,,0.00,,2013-03-13 21:12:00,
2013-03-13 17:22:00,44.0,-99.9,-100.00,WNW,303,9.0,-999.0,-999,-99.99,,,0.00,,2013-03-13 21:22:00,
2013-03-13 17:34:00,44.0,-99.9,-100.00,WNW,303,9.0,-999.0,-999,-99.99,,,0.00,,2013-03-13 21:34:00,
2013-03-13 17:42:00,43.0,-99.9,-100.00,NW,313,10.0,-999.0,-999,-99.99,,,0.00,,2013-03-13 21:42:00,
2013-03-13 17:52:00,43.0,-99.9,-100.00,NW,313,10.0,-999.0,-999,-99.99,,,0.00,,2013-03-13 21:52:00,
2013-03-13 18:02:00,43.0,-99.9,-100.00,NW,313,10.0,-999.0,-999,-99.99,,,0.00,,2013-03-13 22:02:00,
2013-03-13 18:12:00,42.0,-99.9,-100.00,NW,312,11.0,-999.0,-999,-99.99,,,0.00,,2013-03-13 22:12:00,
2013-03-13 18:22:00,42.0,-99.9,-100.00,NW,312,11.0,-999.0,-999,-99.99,,,0.00,,2013-03-13 22:22:00,
2013-03-13 18:33:00,42.0,-99.9,-100.00,NW,312,11.0,-999.0,-999,-99.99,,,0.00,,2013-03-13 22:33:00,
2013-03-13 18:43:00,41.0,-99.9,-100.00,NNW,331,10.0,-999.0,-999,-99.99,,,0.00,,2013-03-13 22:43:00,
2013-03-13 18:53:00,41.0,-99.9,-100.00,NNW,331,10.0,-999.0,-999,-99.99,,,0.00,,2013-03-13 22:53:00,
2013-03-13 19:02:00,41.0,-99.9,-100.00,NNW,331,10.0,-999.0,-999,-99.99,,,0.00,,2013-03-13 23:02:00,
2013-03-13 19:13:00,40.0,-99.9,-100.00,NW,319,11.0,-999.0,-999,-99.99,,,0.00,,2013-03-13 23:13:00,
2013-03-13 19:22:00,40.0,-99.9,-100.00,NW,319,11.0,-999.0,-999,-99.99,,,0.00,,2013-03-13 23:22:00,
2013-03-13 19:32:00,40.0,-99.9,-100.00,NW,319,11.0,-999.0,-999,-99.99,,,0.00,,2013-03-13 23:32:00,
2013-03-13 19:43:00,40.0,-99.9,-100.00,WNW,302,10.0,-999.0,-999,-99.99,,,0.00,,2013-03-13 23:43:00,
2013-03-13 19:53:00,40.0,-99.9,-100.00,WNW,302,10.0,-999.0,-999,-99.99,,,0.00,,2013-03-13 23:53:00,
2013-03-13 20:02:00,40.0,-99.9,-100.00,WNW,302,10.0,-999.0,-999,-99.99,,,0.00,,2013-03-14 00:02:00,
2013-03-13 20:13:00,40.0,-99.9,-100.00,WNW,302,10.0,-999.0,-999,-99.99,,,0.00,,2013-03-14 00:13:00,
2013-03-13 20:22:00,39.0,-99.9,-100.00,NNW,333,10.0,-999.0,-999,-99.99,,,0.00,,2013-03-14 00:22:00,
2013-03-13 20:33:00,39.0,-99.9,-100.00,NNW,333,10.0,-999.0,-999,-99.99,,,0.00,,2013-03-14 00:33:00,
2013-03-13 20:43:00,39.0,-99.9,-100.00,NNW,333,10.0,-999.0,-999,-99.99,,,0.00,,2013-03-14 00:43:00,
2013-03-13 20:53:00,38.0,-99.9,-100.00,NW,312,7.0,-999.0,-999,-99.99,,,0.00,,2013-03-14 00:53:00,
2013-03-13 21:03:00,38.0,-99.9,-100.00,NW,312,7.0,-999.0,-999,-99.99,,,0.00,,2013-03-14 01:03:00,
2013-03-13 21:12:00,38.0,-99.9,-100.00,NW,312,7.0,-999.0,-999,-99.99,,,0.00,,2013-03-14 01:12:00,
2013-03-13 21:23:00,37.0,-99.9,-100.00,NW,308,9.0,-999.0,-999,-99.99,,,0.00,,2013-03-14 01:23:00,
2013-03-13 21:33:00,37.0,-99.9,-100.00,NW,308,9.0,-999.0,-999,-99.99,,,0.00,,2013-03-14 01:33:00,
2013-03-13 21:42:00,37.0,-99.9,-100.00,NW,308,9.0,-999.0,-999,-99.99,,,0.00,,2013-03-14 01:42:00,
2013-03-13 22:22:00,36.0,-99.9,-100.00,NNW,329,13.0,-999.0,-999,-99.99,,,0.00,,2013-03-14 02:22:00,
2013-03-13 22:33:00,36.0,-99.9,-100.00,NNW,329,13.0,-999.0,-999,-99.99,,,0.00,,2013-03-14 02:33:00,
2013-03-13 22:42:00,36.0,-99.9,-100.00,NNW,329,13.0,-999.0,-999,-99.99,,,0.00,,2013-03-14 02:42:00,
2013-03-13 23:23:00,35.0,-99.9,-100.00,NW,324,7.0,-999.0,-999,-99.99,,,-99.99,,2013-03-14 03:23:00,
2013-03-13 23:33:00,35.0,-99.9,-100.00,NW,324,7.0,-999.0,-999,-99.99,,,-99.99,,2013-03-14 03:33:00,
2013-03-13 23:43:00,34.0,-99.9,-100.00,NNW,340,5.0,-999.0,-999,-99.99,,,0.00,,2013-03-14 03:43:00,
2013-03-13 23:53:00,34.0,-99.9,-100.00,North,355,7.0,-999.0,-999,-99.99,,,0.00,,2013-03-14 03:53:00,